Weather History for Guadalupe Pass, TX

Change the Weather History Date:

Saturday, May 25, 2013

  Actual Average Record
Temperature  
Mean Temperature 75 °F -  
Max Temperature 93 °F 83 °F 99 °F (2006)
Min Temperature 57 °F 59 °F 51 °F (2002)
Cooling Degree Days 10    
Growing Degree Days 25 (Base 50)    
Moisture  
Dew Point 50 °F    
Average Humidity 54    
Maximum Humidity 93    
Minimum Humidity 15    
Precipitation  
Precipitation 0.04 in - - ()
Sea Level Pressure  
Sea Level Pressure 29.90 in    
Wind  
Wind Speed 23 mph (ENE)    
Max Wind Speed 36 mph    
Max Gust Speed 43 mph    
Visibility 7 miles    
Events      
Averages and records for this station are not official NWS values.
T = Trace of Precipitation, MM = Missing Value Source: NWS Daily Summary

Daily Weather History Graph

Daily Weather History Graph

Search for Another Location

Airport:

Trip Planner

Search our weather history database for the weather conditions in past years. The results will help you decide how hot, cold, wet, or windy it might be!

Date:

Astronomy

May. 25, 2013 Rise Set
Actual Time 5:56 AM MDT 7:56 PM MDT
Civil Twilight 5:29 AM MDT 8:23 PM MDT
Nautical Twilight 4:55 AM MDT 8:56 PM MDT
Astronomical Twilight 4:20 AM MDT 9:32 PM MDT
Moon 8:47 PM MDT (5/25) 6:24 AM MDT (5/25)
Length of Visible Light 14h 54m
Length of Day
13h 59m
Waxing Gibbous, 99% of the Moon is Illuminated
May 25
Waxing Gibbous
May 31
Last Quarter
Jun 8
New
Jun 16
First Quarter
Jun 23
Full

Hourly Weather History & Observations

Time (MDT) Temp. Dew Point Humidity Pressure Visibility Wind Dir Wind Speed Gust Speed Precip Events Conditions
12:51 AM 63.0 °F 52.0 °F 67% 29.94 in 9.0 mi ENE 31.1 mph - N/A   Clear
1:51 AM 61.0 °F 55.9 °F 83% 29.92 in 8.0 mi ENE 35.7 mph - N/A   Clear
2:51 AM 60.1 °F 55.9 °F 86% 29.91 in 8.0 mi NE 32.2 mph - N/A   Clear
3:51 AM 59.0 °F 55.9 °F 90% 29.92 in 8.0 mi ENE 23.0 mph - N/A   Clear
4:51 AM 57.9 °F 55.9 °F 93% 29.95 in 8.0 mi ENE 16.1 mph - N/A   Clear
5:51 AM 57.9 °F 55.9 °F 93% 29.95 in 7.0 mi Variable 4.6 mph - N/A   Clear
6:51 AM 64.9 °F 53.1 °F 65% 29.95 in 7.0 mi SE 10.4 mph - N/A   Clear
7:51 AM 68.0 °F 53.1 °F 59% 29.95 in 7.0 mi South 4.6 mph - N/A   Clear
8:51 AM 71.1 °F 53.1 °F 53% 29.94 in 7.0 mi SW 16.1 mph - N/A   Clear
9:51 AM 75.0 °F 53.1 °F 46% 29.94 in 7.0 mi WSW 10.4 mph - N/A   Clear
10:51 AM 82.9 °F 51.1 °F 33% 29.92 in 7.0 mi WSW 16.1 mph - N/A   Clear
11:51 AM 84.9 °F 48.9 °F 29% 29.92 in 7.0 mi WSW 18.4 mph 27.6 mph N/A   Clear
12:51 PM 87.1 °F 46.9 °F 25% 29.91 in 7.0 mi WSW 15.0 mph 27.6 mph N/A   Clear
1:51 PM 90.0 °F 44.1 °F 20% 29.88 in 7.0 mi WSW 11.5 mph 23.0 mph N/A   Clear
2:51 PM 93.0 °F 37.9 °F 15% 29.85 in 8.0 mi SW 17.3 mph 31.1 mph N/A   Scattered Clouds
3:51 PM 87.1 °F 34.0 °F 15% 29.84 in 7.0 mi WSW 18.4 mph 36.8 mph N/A   Partly Cloudy
4:51 PM 87.1 °F 35.1 °F 16% 29.83 in 7.0 mi WSW 13.8 mph 27.6 mph N/A   Partly Cloudy
5:51 PM 75.0 °F 52.0 °F 44% 29.87 in 7.0 mi NE 32.2 mph 39.1 mph N/A   Partly Cloudy
6:51 PM 70.0 °F 55.9 °F 61% 29.87 in 7.0 mi NE 27.6 mph 36.8 mph 0.04 in   Partly Cloudy
7:51 PM 68.0 °F 55.0 °F 63% 29.86 in 7.0 mi NE 35.7 mph 42.6 mph N/A   Clear
9:51 PM 66.0 °F 54.0 °F 65% 29.90 in 8.0 mi ENE 27.6 mph - N/A   Clear
10:51 PM 66.0 °F 50.0 °F 56% 29.88 in 8.0 mi NE 29.9 mph - N/A   Clear
11:51 PM 64.0 °F 48.0 °F 56% 29.89 in 8.0 mi NE 28.8 mph - N/A   Clear